ONEWEB-0209, 48215

Orbit data source: Space-Track

ONEWEB-0209, 48215 is a payload satellite owned by One Web (NAA) (UK) in LEO that was launched on Sun, 25 Apr 2021 UTC via a SOYUZ-2-1B launch vehicle from the Vostochny Cosmodrome (VOSTO). Payload-class satellites include a variety of spacecraft equipped with specific instruments for various scientific and technological missions. These include communications satellites like Starlink; space stations such as the ISS; scientific satellites like the Hubble; Earth observation satellites from companies like Planet Labs, Umbra, and HawkEye 360; GPS; miniature CubeSats for education and research; and military/defense satellites.

Loading next visibility...
Identifier
48215, 2021-031F
Orbit
LEO
Country
Flag of UKUK
Related business
Manufacturer
One Web
Mission
Operational Commercial Communications
Bus & Motor
ARROW, Unknown motor
Mass
148 kg wet, ~140 kg dry
Launch date (UTC)
2021-04-25 (5 years ago)
Launch vehicle
SOYUZ-2-1B
Launch site
Vostochny Cosmodrome (VOSTO)
Object type
Payload
Rocket body
Debris
Shape & HBR
Trap Box + 2 Pan, 6.7 m
Radar Cross Section
3.464 m², Large (>1 m²)

Expand to show TLE details & history
Last TLE update: 17 hours ago

TLE from 17 hours ago
0 ONEWEB-0209
1 48215U 21031F   25306.48753619 -.00000182  00000-0 -52604-3 0  9999
2 48215  87.9011 334.8878 0001909  88.0841 272.0507 13.14503754218598
Epoch: 2025-11-02T11:42Z
TLE epoch observation values (Epoch: 2025-11-02T11:42:03.126Z)
Latitude
-0.00007°
Longitude
117.37222°
Altitude
1,208.629 km
Speed
7.25 km/s
True Right ascension
22h 19m 33s
True Declination
0° 00' 00"
Sunlit
Object was in daylight at epoch
Visualization orbit readout
Latitude
Unknown
Longitude
Unknown
Altitude
Unknown
Speed
Unknown
Apparent Right ascension
Unknown
Apparent Declination
Unknown
Sunlit
N/A
Visualization observer readout
Local Sidereal Time
00:04:58
Azimuth
Unknown
Elevation
Unknown
Doppler factor
Unknown
Orbital elements
Apogee altitude
1,204.347 km
Perigee altitude
1,201.453 km
Semi-major axis
7,581.037 km
Eccentricity
0.00019
Inclination
87.9011°
RAAN
334.8878°
Arg. of periapsis
88.0841°
True anomaly
272.02884°
Mean anomaly
272.0507°
Eccentric anomaly
272.03977°
Mean motion
3.28814 °/min
Orbital period
109.48 mins
BSTAR
-0.00052604
Loading maneuver chart data...
Computing Atmospheric mass density...
Loading historical data...
Loading historical data...
Loading historical data...
Loading historical data...
Loading historical data...
Loading historical data...
Loading historical data...

Documentation

Showing up to 5 results
|